Back to catalog

SL-12 R/B(2)

AliveHEO
NORAD 25660·ROCKET BODY·🇷🇺 Russia

Launched Mar 21, 1999 from Baikonur Cosmodrome

Loading…

Next Passes (next 24 hours)

TLE

FreshSource: Space-Track

Epoch: Sep 14, 2026, 14:13 UTC

1 25660U 99013D   26257.59243442 -.00000129  00000-0  00000-0 0  9999
2 25660  13.1212  93.9673 4596390 104.2493  38.1511  1.74923396175665

Track SL-12 R/B(2) in real time with AllMySat

Download on the App Store